ZHONGXING-1E

Last updated on Tue Sep 22 2026 00:03:15 GMT+0000 (Coordinated Universal Time)

1 53813U 22112A 26264.68863007 -.00000154 00000+0 00000+0 0 9995 2 53813 0.0467 322.0140 0002865 303.4639 64.4386 1.00272854 14814
UTC large
Height (km)
Speed (km/s)
/
Latitude / Longitude
Inclination (degrees)
Orbital Period (minutes)
Azimuth
Elevation
Range (km)
Doppler Factor

Next 0 passes for location: London (51.5072 / 0.1276)

No passes found over London.
ZHONGXING-1E